EUTELSAT 5 WEST B

Last updated on Sat Aug 22 2026 00:03:00 GMT+0000 (Coordinated Universal Time)

1 44624U 19067A 26233.33866442 -.00000044 00000+0 00000+0 0 9992 2 44624 0.0885 308.3260 0003314 198.7994 299.4423 1.00272797 25086
UTC large
Height (km)
Speed (km/s)
/
Latitude / Longitude
Inclination (degrees)
Orbital Period (minutes)
Azimuth
Elevation
Range (km)
Doppler Factor

Next 0 passes for location: London (51.5072 / 0.1276)

No passes found over London.